星链-4766 (STARLINK-4766 )

导读 | 豆包AI

STARLINK-4766是美国SpaceX公司星链(Starlink)卫星互联网项目的一颗卫星,于2022年9月19日发射升空。星链项目旨在构建全球卫星互联网星座,为全球偏远地区、海洋空域等提供低延迟高速网络服务,该卫星入轨后承担着全球通信覆盖、网络接入等相关任务,是星链庞大组网卫星中的一员。

Basic Information
目录编号:
53840
目录名称:
STARLINK-4766
国际标识:
2022-114Y
轨道中心:
EARTH
卫星名称:
星链-4766
卫星全名:
星链-4766 (STARLINK-4766 )
卫星状态:
在轨 (已飞行1273 天)
发射日期:
2022-09-19 UTC
国别 :
美国 (US)
星等 :
--
Orbit Information
数据来源 国际轨道数据 AOE轨道数据
星历时间 2026-03-15T03:25:19+0800
14小时前
查看轨道信息
2026-03-13T16:00:00+0800
2天前
查看轨道信息
半长轴 6917.905km 6917.907km
偏心率 0.0001494 0.0001607
轨道倾角 53.216° 53.214°
近地点辐角 92.093° 84.488°
升交点赤经 271.202° 277.828°
平近点角 268.023° 174.352°
近地点 538.734km 538.658km
远地点 540.802km 540.882km
周期 95.438分钟 95.438分钟
每日圈数 15.08832 15.088315
Detailed Information
固有亮度:
5
最大亮度:
2.5
卫星平台:
Starlink v1.5
覆盖范围:
全球
运营商:
太空探索技术公司
运营商所在国:
美国
制造商(研发单位):
太空探索技术公司
制造商所在国:
美国
使用方式:
暂无
Satellite Introduction
星链(Starlink)计划是由太空探索技术公司(SpaceX)提出的一个巨型低轨卫星互联网星座项目,计划在2019年至2024年间在太空搭建由约1.2万颗卫星组成的“星链”网络,其中1584颗将部署在地球上空550千米处的近地轨道,并从2020年开始工作。该卫星仍在工作。
2D Orbit Map
3D Orbit Map
Orbit Altitude Analysis Chart
Orbit Inclination Analysis Chart
Orbit Comprehensive Analysis Chart
View Comprehensive Chart